Regional Weather Roundup
Issued by NWS

Home | Current Version | Previous Version | Text Only | Print | Product List | Glossary Off
Versions: 1 2 3 4 5 6 7 8 9 10 11 12 13 14 15 16 17 18 19 20 21 22 23 24 25 26 27 28 29 30 31 32 33 34 35 36 37 38 39 40 41 42 43 44 45 46 47 48 49 50

000
ASUS43 KFSD 090610
RWRSD

WEATHER ROUNDUP FOR SOUTH DAKOTA
NATIONAL WEATHER SERVICE SIOUX FALLS SD
1200 AM CST FRI DEC 09 2016

NOTE: "FAIR" INDICATES FEW OR NO CLOUDS BELOW 12,000 FEET WITH NO
SIGNIFICANT WEATHER AND/OR OBSTRUCTIONS TO VISIBILITY.


SDZ001>005-009-010-012>017-090700-
NORTHWEST AND NORTH CENTRAL SOUTH DAKOTA

CITY           SKY/WX    TMP DP  RH WIND       PRES   REMARKS
BUFFALO          N/A     -8 -12  83 NE7       30.32F WCI -23
FAITH            N/A     -8 -10  91 NE5       30.47F WCI -19
MOBRIDGE       CLOUDY    -2  -7  79 NW7       30.56R WCI -15
$$

SDZ012>016-024>037-041>051-057-063-072>074-090700-
SOUTHWEST AND SOUTH CENTRAL SOUTH DAKOTA

CITY           SKY/WX    TMP DP  RH WIND       PRES   REMARKS
RAPID CTY ARPT CLOUDY     0  -7  72 CALM      30.39F
PIERRE         CLOUDY     4  -2  76 N6        30.59S WCI  -7
CUSTER         CLOUDY    -2  -8  76 CALM      30.13F
ELLSWORTH AFB  CLOUDY     1  -6  72 SE5       30.36F WCI  -9
PHILIP         CLOUDY    -8 -13  78 S3        30.53F
PINE RIDGE     CLOUDY    -7 -10  87 E3        30.36F
SPEARFISH      FAIR      -4 -11  71 W5        30.28F WCI -15
WINNER         FAIR      -2  -7  79 CALM      30.57S
$$

SDZ004>011-016>023-039-040-090700-
NORTHEAST SOUTH DAKOTA

CITY           SKY/WX    TMP DP  RH WIND       PRES   REMARKS
ABERDEEN       CLEAR     -7 -12  79 SW5       30.63S WCI -18
WATERTOWN      CLEAR     -1  -5  82 NW10      30.54R WCI -17
BROOKINGS      CLEAR      0  -3  87 NW7       30.56  WCI -13
SISSETON         N/A      0  -5  79 NW9       30.59S WCI -15
$$

SDZ017-020-022-023-036>040-048>070-090700-
SOUTHEAST SOUTH DAKOTA

CITY           SKY/WX    TMP DP  RH WIND       PRES   REMARKS
SIOUX FALLS    CLEAR      4   1  88 NW7       30.59S WCI  -8
HURON          CLEAR     -1  -5  82 NW8       30.63S WCI -15
CHAMBERLAIN    FLURRIES   6   2  85 N3        30.60F
MITCHELL       CLEAR      1  -3  83 NW7       30.65S WCI -12
YANKTON        CLEAR      5   0  78 NW9       30.64R WCI  -9
$$

ABBREVIATIONS USED IN REMARKS
   TC - TEMPERATURE IN CELSIUS
  WCI - WIND CHILL INDEX
   HX - HEAT INDEX
  VSB - VISIBILITY





USA.gov is the U.S. government's official web portal to all federal, state and local government web resources and services.